Location: Peterborough
(44.3091°N, 78.3197°W)
Time: 05:47:25
(UTC-04:00)

Vanguard 3 - Pass Details

Date: 26 March 2023
Orbit: 507 x 3246 km, 33.4° (Epoch: 04 June)

Event Time Altitude Azimuth Distance (km) Brightness Sun altitude
Rises 01:03:43 0° 187° (S) 6,130 - -43.5°
Reaches altitude 10° 01:09:22 10° 171° (S) 5,536 - -43.5°
Maximum altitude 01:20:03 19° 133° (SE) 5,259 - -43.6°
Exits shadow 01:24:32 18° 117° (ESE) 5,485 11.1 -43.6°
Drops below altitude 10° 01:31:43 10° 96° (E) 6,169 11.6 -43.5°
Sets 01:38:27 0° 82° (E) 7,055 12.1 -43.4°
